View from above orbital plane
|
View from above satellite
|
Ground track
|
The orbit data is extracted from the following two-line orbital elements,
1 20303U 89085B 21016.70086085 .00002479 00000-0 78613-4 0 9993
2 20303 35.6416 110.0103 0093240 273.7005 85.3065 15.28433352701239
Epoch (UTC): | 16 January 2021 16:49:14 |
Eccentricity: | 0.0093240 |
inclination: | 35.6416° |
perigee height: | 416 km |
apogee height: | 544 km |
right ascension of ascending node: | 110.0103° |
argument of perigee: | 273.7005° |
revolutions per day: | 15.28433352 |
mean anomaly at epoch: | 85.3065° |
orbit number at epoch: | 70123 |
The dashed part of the orbit path shows where the satellite is in the earth's shadow,
|
|